Stündliche Wetter Centralnyy

Heute, 24 Januar, Sonntag

Zeit Temperatur Niederschläge Wind Luftdruck Luftfeuchtigkeit
00:00 -1°C° 0 mm 2 m/S 746 mmHg 97%
01:00 -1°C° 0 mm 2 m/S 746 mmHg 98%
02:00 +1°C° 0 mm 2 m/S 746 mmHg 98%
03:00 +1°C° 0 mm 2 m/S 746 mmHg 98%
04:00 +1°C° 0 mm 2 m/S 746 mmHg 98%
05:00 +1°C° 0 mm 2 m/S 746 mmHg 98%
06:00 +1°C° 0 mm 2 m/S 746 mmHg 98%
07:00 +1°C° 0 mm 2 m/S 746 mmHg 97%
08:00 +1°C° 0 mm 2 m/S 746 mmHg 97%
09:00 +1°C° 0 mm 2 m/S 746 mmHg 98%
10:00 +1°C° 0 mm 2 m/S 746 mmHg 99%
11:00 0°C° 0 mm 3 m/S 746 mmHg 99%
12:00 0°C° 0 mm 3 m/S 746 mmHg 99%
13:00 0°C° 0 mm 3 m/S 746 mmHg 99%
14:00 0°C° 0 mm 3 m/S 746 mmHg 99%
15:00 0°C° 0 mm 3 m/S 746 mmHg 99%
16:00 0°C° 0 mm 3 m/S 746 mmHg 99%
17:00 0°C° 0 mm 3 m/S 746 mmHg 98%
18:00 0°C° 0 mm 3 m/S 746 mmHg 98%
19:00 -1°C° 0 mm 4 m/S 746 mmHg 98%
20:00 -1°C° 0 mm 4 m/S 746 mmHg 98%
21:00 -1°C° 0 mm 4 m/S 746 mmHg 98%
22:00 -1°C° 0 mm 4 m/S 746 mmHg 98%
23:00 -1°C° 0 mm 4 m/S 746 mmHg 98%

Morgen, 25 Januar, Montag

Zeit Temperatur Niederschläge Wind Luftdruck Luftfeuchtigkeit
00:00 0°C° 0 mm 4 m/S 746 mmHg 96%
01:00 0°C° 0 mm 4 m/S 745 mmHg 95%
02:00 0°C° 0 mm 4 m/S 745 mmHg 93%
03:00 0°C° 0 mm 4 m/S 745 mmHg 91%
04:00 -1°C° 0 mm 4 m/S 745 mmHg 89%
05:00 -1°C° 0 mm 5 m/S 745 mmHg 87%
06:00 -1°C° 0 mm 5 m/S 745 mmHg 88%
07:00 -2°C° 0 mm 5 m/S 745 mmHg 90%
08:00 -2°C° 0 mm 5 m/S 745 mmHg 91%
09:00 -1°C° 0 mm 5 m/S 745 mmHg 92%
10:00 -1°C° 0 mm 4 m/S 745 mmHg 94%
11:00 -1°C° 0 mm 4 m/S 746 mmHg 95%
12:00 -1°C° 0 mm 4 m/S 746 mmHg 96%
13:00 -1°C° 0 mm 4 m/S 746 mmHg 96%
14:00 -1°C° 0 mm 4 m/S 746 mmHg 97%
15:00 0°C° 0 mm 3 m/S 746 mmHg 97%
16:00 0°C° 0 mm 3 m/S 746 mmHg 98%
17:00 0°C° 0 mm 3 m/S 746 mmHg 98%
18:00 0°C° 0 mm 3 m/S 746 mmHg 98%
19:00 0°C° 0 mm 3 m/S 746 mmHg 98%
20:00 0°C° 0 mm 3 m/S 746 mmHg 98%
21:00 0°C° 0 mm 3 m/S 746 mmHg 98%
22:00 0°C° 0 mm 3 m/S 747 mmHg 98%
23:00 0°C° 0 mm 3 m/S 747 mmHg 97%

übermorgen, 26 Januar, Dienstag

Zeit Temperatur Niederschläge Wind Luftdruck Luftfeuchtigkeit
00:00 0°C° 0 mm 3 m/S 747 mmHg 97%
01:00 0°C° 0 mm 3 m/S 747 mmHg 97%
02:00 0°C° 0 mm 3 m/S 747 mmHg 97%
03:00 0°C° 0 mm 3 m/S 747 mmHg 97%
04:00 0°C° 0 mm 3 m/S 746 mmHg 97%
05:00 0°C° 0 mm 3 m/S 746 mmHg 97%
06:00 -1°C° 0 mm 4 m/S 746 mmHg 97%
07:00 -1°C° 0 mm 4 m/S 746 mmHg 97%
08:00 -1°C° 0 mm 4 m/S 746 mmHg 98%
09:00 0°C° 0.1 mm 4 m/S 745 mmHg 98%
10:00 0°C° 0.1 mm 4 m/S 745 mmHg 98%
11:00 0°C° 0.1 mm 4 m/S 745 mmHg 99%
12:00 0°C° 0.1 mm 4 m/S 744 mmHg 99%
13:00 0°C° 0.1 mm 4 m/S 744 mmHg 99%
14:00 0°C° 0.1 mm 4 m/S 744 mmHg 98%
15:00 0°C° 0 mm 4 m/S 743 mmHg 96%
16:00 -1°C° 0 mm 4 m/S 743 mmHg 94%
17:00 -1°C° 0 mm 4 m/S 743 mmHg 92%
18:00 -1°C° 0 mm 4 m/S 742 mmHg 92%
19:00 -1°C° 0 mm 5 m/S 742 mmHg 92%
20:00 -1°C° 0 mm 5 m/S 741 mmHg 91%
21:00 -1°C° 0.6 mm 5 m/S 740 mmHg 93%
22:00 -2°C° 0.6 mm 6 m/S 739 mmHg 95%
23:00 -3°C° 0.6 mm 6 m/S 738 mmHg 97%

27 Januar, Mittwoch

Zeit Temperatur Niederschläge Wind Luftdruck Luftfeuchtigkeit
00:00 -2°C° 0.4 mm 6 m/S 738 mmHg 97%
01:00 -2°C° 0.4 mm 6 m/S 737 mmHg 97%
02:00 -1°C° 0.4 mm 5 m/S 737 mmHg 97%
03:00 -2°C° 0.1 mm 5 m/S 737 mmHg 95%
04:00 -2°C° 0.1 mm 5 m/S 737 mmHg 93%
05:00 -4°C° 0.1 mm 5 m/S 736 mmHg 90%
06:00 -4°C° 0.1 mm 5 m/S 737 mmHg 90%
07:00 -4°C° 0.1 mm 5 m/S 737 mmHg 90%
08:00 -4°C° 0.1 mm 5 m/S 737 mmHg 89%
09:00 -4°C° 0.1 mm 6 m/S 737 mmHg 89%
10:00 -4°C° 0.1 mm 6 m/S 737 mmHg 89%
11:00 -4°C° 0.1 mm 6 m/S 737 mmHg 89%
12:00 -4°C° 0.1 mm 6 m/S 737 mmHg 89%
13:00 -4°C° 0.1 mm 6 m/S 737 mmHg 89%
14:00 -3°C° 0.1 mm 6 m/S 737 mmHg 89%
15:00 -2°C° 0.1 mm 5 m/S 737 mmHg 89%
16:00 -4°C° 0.1 mm 5 m/S 737 mmHg 89%
17:00 -4°C° 0.1 mm 5 m/S 737 mmHg 89%
18:00 -4°C° 0.1 mm 5 m/S 737 mmHg 91%
19:00 -4°C° 0.1 mm 5 m/S 737 mmHg 92%
20:00 -4°C° 0.1 mm 5 m/S 737 mmHg 94%
21:00 -4°C° 0.3 mm 6 m/S 737 mmHg 93%
22:00 -4°C° 0.3 mm 6 m/S 738 mmHg 93%
23:00 -3°C° 0.3 mm 6 m/S 738 mmHg 93%

28 Januar, Donnerstag

Zeit Temperatur Niederschläge Wind Luftdruck Luftfeuchtigkeit
00:00 -4°C° 0.2 mm 6 m/S 738 mmHg 93%
01:00 -4°C° 0.2 mm 6 m/S 738 mmHg 94%
02:00 -4°C° 0.2 mm 5 m/S 739 mmHg 94%
03:00 -4°C° 0.1 mm 5 m/S 739 mmHg 93%
04:00 -4°C° 0.1 mm 5 m/S 739 mmHg 93%
05:00 -3°C° 0.1 mm 4 m/S 739 mmHg 93%
06:00 -4°C° 0.1 mm 4 m/S 740 mmHg 92%
07:00 -4°C° 0.1 mm 4 m/S 740 mmHg 92%
08:00 -4°C° 0.1 mm 4 m/S 740 mmHg 91%
09:00 -4°C° 0 mm 4 m/S 741 mmHg 91%
10:00 -3°C° 0 mm 4 m/S 741 mmHg 90%
11:00 -3°C° 0 mm 4 m/S 741 mmHg 90%
12:00 -3°C° 0 mm 4 m/S 741 mmHg 90%
13:00 -2°C° 0 mm 3 m/S 741 mmHg 90%
14:00 -2°C° 0 mm 3 m/S 741 mmHg 90%
15:00 -2°C° 0 mm 3 m/S 742 mmHg 91%
16:00 -2°C° 0 mm 2 m/S 742 mmHg 92%
17:00 -3°C° 0 mm 2 m/S 742 mmHg 93%
18:00 -3°C° 0 mm 2 m/S 742 mmHg 94%
19:00 -3°C° 0 mm 2 m/S 742 mmHg 95%
20:00 -3°C° 0 mm 2 m/S 742 mmHg 95%

29 Januar, Freitag

Zeit Temperatur Niederschläge Wind Luftdruck Luftfeuchtigkeit
Mehr zeigen

Wir brauchen deine Erlaubnis

Meteoprog und unser Service Anbieter werden persönliche Daten aufbewahren, so wie Cookies, Geräte Bezeichnung oder ähnliche Technologien von deinem Gerät und Prozess, so wie Persönliche Daten Inhalte und Werbungen, genauso wie social Media und den Verkehr zu analysieren.

  • Aufbewahrung und/oder Zugang zu deiner Geräte Informationen.

    Cookies, Geräte Bezeichnung oder andere Informationen, können aufbewahrt oder Zugang zu deinem Gerät erhalten, für den Grund, der oben angegeben wird.

  • Personalisierte Werbung und Inhalte, Messungen, Einblick in das Publikum und Produkt Entwicklung.

    Werbungen und Inhalte können personalisiert werden, basierend auf ein Profil. Mehr Daten können besser personalisierte Werbungen und Inhalte hinzufügen. Werbung und Inhalte können gezeigt und gemessen werden. Einblicke über das Publikum, welche die Werbung gesehen haben und den Inhalt, können abgeleitet werden. So wie Daten können genutzt werden, um es zu verbessern oder die Benutzer Erfahrung zu verbessern das System und die Software.

Wenn du “Ich stimme zu” klickst, erlaubst du uns, die Cookies zu benutzen die Geräte Bezeichnung, den Web oder ähnliche Technologien zu benutzen. Deine Settings, können in deinem Gerät bei deinem Browser geändert werden.

Für den bestimmten Zweck, berechtigten Interessen beruhen darauf, mehr als auf den Inhalt. Du kannst mehr darüber in unseren Privaten und Cookie Politik lesen.